�������l�o���
Date,Time,MP-1(��Sv/h),MP-2(��Sv/h),MP-3(��Sv/h),MP-4(��Sv/h),MP-5(��Sv/h),MP-6(��Sv/h),MP-7(��Sv/h),MP-8(��Sv/h),����,����(m/s),���J
2022/10/30,00:00,0.577,0.830,0.524,1.049,0.736,0.337,0.593,0.557,�k�k��,5.9,��
2022/10/30,00:10,0.579,0.831,0.526,1.051,0.736,0.336,0.592,0.557,�k��,5.5,��
2022/10/30,00:20,0.578,0.829,0.525,1.049,0.736,0.335,0.591,0.556,�k��,5.2,��
2022/10/30,00:30,0.579,0.830,0.527,1.052,0.736,0.336,0.594,0.558,�k�k��,5.3,��
2022/10/30,00:40,0.579,0.832,0.526,1.052,0.736,0.337,0.594,0.556,�k��,4.3,��
2022/10/30,00:50,0.578,0.831,0.526,1.050,0.735,0.337,0.592,0.557,�k��,5.0,��
2022/10/30,01:00,0.579,0.831,0.525,1.052,0.734,0.336,0.592,0.557,�k��,4.9,��
2022/10/30,01:10,0.579,0.831,0.526,1.050,0.736,0.335,0.591,0.557,�k��,4.9,��
2022/10/30,01:20,0.578,0.831,0.526,1.048,0.735,0.336,0.592,0.558,�k��,6.9,��
2022/10/30,01:30,0.578,0.831,0.525,1.050,0.734,0.336,0.591,0.558,�k��,6.1,��
2022/10/30,01:40,0.578,0.831,0.526,1.051,0.736,0.337,0.593,0.557,�k��,6.1,��
2022/10/30,01:50,0.579,0.833,0.524,1.052,0.737,0.336,0.592,0.557,�k��,5.9,��
2022/10/30,02:00,0.579,0.830,0.526,1.050,0.735,0.337,0.590,0.556,�k��,4.3,��
2022/10/30,02:10,0.578,0.830,0.526,1.051,0.735,0.337,0.592,0.557,�k��,5.2,��
2022/10/30,02:20,0.578,0.829,0.524,1.051,0.735,0.338,0.591,0.557,�k��,5.9,��
2022/10/30,02:30,0.578,0.829,0.527,1.051,0.737,0.336,0.591,0.557,�k��,6.6,��
2022/10/30,02:40,0.578,0.831,0.526,1.051,0.735,0.336,0.592,0.557,�k��,5.6,��
2022/10/30,02:50,0.580,0.830,0.524,1.050,0.736,0.337,0.594,0.556,�k��,5.7,��
2022/10/30,03:00,0.578,0.829,0.524,1.049,0.736,0.336,0.590,0.555,�k��,5.1,��
2022/10/30,03:10,0.577,0.831,0.524,1.052,0.736,0.336,0.593,0.557,�k��,4.0,��
2022/10/30,03:20,0.579,0.829,0.524,1.051,0.734,0.336,0.591,0.559,�k��,3.7,��
2022/10/30,03:30,0.578,0.827,0.525,1.051,0.734,0.337,0.592,0.557,�k��,4.1,��
2022/10/30,03:40,0.578,0.831,0.526,1.051,0.736,0.336,0.591,0.557,�k��,4.6,��
2022/10/30,03:50,0.578,0.830,0.526,1.049,0.735,0.335,0.592,0.557,�k��,5.1,��
2022/10/30,04:00,0.580,0.829,0.525,1.051,0.735,0.336,0.591,0.556,�k��,5.1,��
2022/10/30,04:10,0.576,0.828,0.525,1.050,0.736,0.336,0.590,0.556,�k��,5.4,��
2022/10/30,04:20,0.578,0.830,0.525,1.051,0.733,0.336,0.592,0.557,�k��,5.2,��
2022/10/30,04:30,0.578,0.830,0.523,1.050,0.735,0.336,0.591,0.557,�k��,4.9,��
2022/10/30,04:40,0.579,0.831,0.524,1.050,0.736,0.336,0.593,0.558,�k��,7.0,��
2022/10/30,04:50,0.577,0.829,0.524,1.052,0.735,0.337,0.592,0.559,�k��,7.2,��
2022/10/30,05:00,0.578,0.827,0.524,1.050,0.736,0.337,0.592,0.557,�k��,7.2,��
2022/10/30,05:10,0.577,0.829,0.526,1.049,0.734,0.337,0.590,0.557,�k�k��,6.4,��
2022/10/30,05:20,0.577,0.830,0.524,1.051,0.736,0.336,0.591,0.557,�k�k��,6.5,��
2022/10/30,05:30,0.578,0.830,0.525,1.049,0.736,0.336,0.589,0.556,�k�k��,5.4,��
2022/10/30,05:40,0.578,0.828,0.525,1.049,0.736,0.337,0.591,0.558,�k�k��,5.4,��
2022/10/30,05:50,0.576,0.829,0.523,1.052,0.737,0.337,0.590,0.558,�k�k��,5.5,��
2022/10/30,06:00,0.578,0.829,0.525,1.050,0.736,0.337,0.592,0.557,�k,5.6,��
2022/10/30,06:10,0.578,0.832,0.524,1.049,0.735,0.337,0.591,0.557,�k�k��,5.1,��
2022/10/30,06:20,0.576,0.830,0.526,1.048,0.734,0.336,0.591,0.557,�k�k��,4.9,��
2022/10/30,06:30,0.576,0.828,0.525,1.049,0.735,0.335,0.591,0.556,�k�k��,4.8,��
2022/10/30,06:40,0.578,0.830,0.524,1.050,0.733,0.336,0.594,0.557,�k��,5.1,��
2022/10/30,06:50,0.579,0.829,0.526,1.051,0.735,0.337,0.591,0.557,�k��,4.9,��
2022/10/30,07:00,0.579,0.831,0.526,1.052,0.735,0.337,0.590,0.556,�k��,4.8,��
2022/10/30,07:10,0.577,0.829,0.526,1.052,0.734,0.337,0.593,0.557,�k��,5.2,��
2022/10/30,07:20,0.576,0.831,0.525,1.050,0.735,0.336,0.592,0.556,�k��,4.5,��
2022/10/30,07:30,0.579,0.830,0.525,1.049,0.735,0.336,0.591,0.555,�k��,4.6,��
2022/10/30,07:40,0.580,0.830,0.526,1.050,0.736,0.337,0.591,0.557,�k�k��,5.5,��
2022/10/30,07:50,0.579,0.831,0.525,1.050,0.735,0.338,0.592,0.559,�k�k��,4.9,��
2022/10/30,08:00,0.578,0.831,0.524,1.050,0.735,0.338,0.592,0.558,�k�k��,5.7,��
2022/10/30,08:10,0.579,0.831,0.525,1.046,0.734,0.338,0.594,0.557,�k��,5.0,��
2022/10/30,08:20,0.580,0.831,0.526,1.050,0.735,0.337,0.593,0.557,�k��,4.4,��
2022/10/30,08:30,0.580,0.832,0.524,1.050,0.737,0.337,0.591,0.558,�k�k��,4.2,��
2022/10/30,08:40,0.579,0.830,0.524,1.051,0.735,0.338,0.589,0.557,�k�k��,4.0,��
2022/10/30,08:50,0.580,0.830,0.527,1.052,0.735,0.338,0.591,0.557,�k,4.1,��
2022/10/30,09:00,0.581,0.830,0.528,1.054,0.738,0.337,0.591,0.556,�k,4.1,��
2022/10/30,09:10,0.579,0.829,0.527,1.049,0.736,0.337,0.590,0.558,�k,3.7,��
2022/10/30,09:20,0.578,0.830,0.527,1.053,0.738,0.336,0.591,0.558,�k�k��,3.5,��
2022/10/30,09:30,0.579,0.829,0.527,1.051,0.737,0.338,0.591,0.559,�k�k��,4.0,��
2022/10/30,09:40,0.579,0.828,0.526,1.051,0.737,0.339,0.592,0.558,�k�k��,4.0,��
2022/10/30,09:50,0.577,0.829,0.525,1.052,0.737,0.337,0.591,0.558,�k�k��,5.1,��
2022/10/30,10:00,0.580,0.830,0.525,1.050,0.736,0.336,0.591,0.558,�k�k��,4.3,��
2022/10/30,10:10,0.578,0.830,0.524,1.052,0.736,0.335,0.590,0.558,�k�k��,4.6,��
2022/10/30,10:20,0.578,0.829,0.525,1.052,0.734,0.335,0.590,0.559,�k�k��,4.8,��
2022/10/30,10:30,0.578,0.830,0.524,1.050,0.736,0.336,0.591,0.558,�k�k��,4.6,��
2022/10/30,10:40,0.579,0.829,0.525,1.051,0.734,0.336,0.590,0.556,�k�k��,5.1,��
2022/10/30,10:50,0.579,0.829,0.526,1.053,0.736,0.336,0.592,0.556,�k�k��,5.6,��
2022/10/30,11:00,0.580,0.831,0.525,1.051,0.737,0.337,0.592,0.556,�k�k��,5.8,��
2022/10/30,11:10,0.580,0.831,0.525,1.052,0.736,0.337,0.590,0.558,�k�k��,5.1,��
2022/10/30,11:20,0.579,0.832,0.525,1.050,0.736,0.336,0.590,0.557,�k�k��,5.3,��
2022/10/30,11:30,0.580,0.831,0.527,1.051,0.737,0.336,0.590,0.558,�k�k��,5.2,��
2022/10/30,11:40,0.579,0.832,0.525,1.051,0.737,0.336,0.592,0.558,�k�k��,5.1,��
2022/10/30,11:50,0.579,0.833,0.525,1.054,0.735,0.336,0.590,0.559,�k�k��,5.6,��
2022/10/30,12:00,0.581,0.832,0.524,1.052,0.737,0.337,0.591,0.560,�k�k��,5.1,��
2022/10/30,12:10,0.579,0.834,0.525,1.052,0.735,0.337,0.591,0.557,�k��,4.4,��
2022/10/30,12:20,0.579,0.830,0.526,1.052,0.736,0.336,0.590,0.557,�k�k��,3.5,��
2022/10/30,12:30,0.581,0.829,0.526,1.052,0.737,0.338,0.589,0.557,�k��,3.8,��
2022/10/30,12:40,0.579,0.833,0.527,1.050,0.737,0.337,0.592,0.554,�k��,3.5,��
2022/10/30,12:50,0.581,0.833,0.523,1.051,0.738,0.338,0.591,0.556,�k��,3.7,��
2022/10/30,13:00,0.580,0.831,0.526,1.054,0.737,0.337,0.590,0.556,�k��,4.0,��
2022/10/30,13:10,0.581,0.832,0.526,1.052,0.738,0.337,0.591,0.556,�k��,4.2,��
2022/10/30,13:20,0.580,0.831,0.526,1.053,0.736,0.338,0.590,0.556,�k��,3.4,��
2022/10/30,13:30,0.580,0.833,0.525,1.051,0.738,0.337,0.590,0.557,�k��,3.2,��
2022/10/30,13:40,0.581,0.832,0.527,1.052,0.739,0.339,0.590,0.557,�k��,3.0,��
2022/10/30,13:50,0.582,0.831,0.526,1.053,0.737,0.337,0.591,0.558,�k��,3.2,��
2022/10/30,14:00,0.579,0.831,0.525,1.053,0.737,0.336,0.591,0.558,�k�k��,3.1,��
2022/10/30,14:10,0.580,0.832,0.526,1.051,0.737,0.337,0.592,0.557,�k�k��,3.1,��
2022/10/30,14:20,0.581,0.831,0.526,1.051,0.738,0.336,0.590,0.556,�k�k��,3.0,��
2022/10/30,14:30,0.580,0.832,0.526,1.051,0.736,0.337,0.590,0.556,�k�k��,2.6,��
2022/10/30,14:40,0.578,0.832,0.527,1.052,0.737,0.338,0.591,0.556,�k�k��,2.2,��
2022/10/30,14:50,0.580,0.830,0.525,1.053,0.737,0.339,0.590,0.557,�k�k��,1.9,��
2022/10/30,15:00,0.579,0.831,0.525,1.054,0.738,0.337,0.591,0.556,�k�k��,2.6,��
2022/10/30,15:10,0.582,0.831,0.524,1.053,0.738,0.337,0.591,0.557,�k�k��,2.5,��
2022/10/30,15:20,0.579,0.831,0.525,1.052,0.737,0.337,0.590,0.557,�k�k��,2.6,��
2022/10/30,15:30,0.579,0.832,0.526,1.053,0.737,0.336,0.592,0.558,�k�k��,2.6,��
2022/10/30,15:40,0.580,0.831,0.526,1.053,0.737,0.337,0.591,0.559,�k,3.1,��
2022/10/30,15:50,0.579,0.834,0.526,1.054,0.739,0.338,0.592,0.559,�k,2.8,��
2022/10/30,16:00,0.579,0.833,0.526,1.054,0.736,0.338,0.590,0.559,�k,2.2,��
2022/10/30,16:10,0.579,0.833,0.526,1.053,0.738,0.339,0.592,0.559,���k��,1.4,��
2022/10/30,16:20,0.580,0.831,0.525,1.054,0.735,0.336,0.592,0.559,�k��,0.9,��
2022/10/30,16:30,0.579,0.834,0.525,1.050,0.739,0.337,0.591,0.558,��,0.9,��
2022/10/30,16:40,0.579,0.835,0.524,1.052,0.737,0.339,0.590,0.559,���쐼,1.4,��
2022/10/30,16:50,0.580,0.835,0.525,1.050,0.741,0.337,0.592,0.558,�쐼,1.2,��
2022/10/30,17:00,0.578,0.834,0.526,1.052,0.740,0.338,0.593,0.559,�쐼,0.9,��
2022/10/30,17:10,0.580,0.834,0.530,1.053,0.738,0.338,0.592,0.559,��,1.5,��
2022/10/30,17:20,0.581,0.833,0.527,1.053,0.739,0.337,0.593,0.558,���k��,2.8,��
2022/10/30,17:30,0.582,0.834,0.527,1.052,0.740,0.337,0.591,0.558,���k��,3.7,��
2022/10/30,17:40,0.581,0.834,0.526,1.052,0.739,0.339,0.592,0.556,���k��,3.9,��
2022/10/30,17:50,0.581,0.835,0.527,1.050,0.739,0.338,0.592,0.556,�k��,3.5,��
2022/10/30,18:00,0.580,0.833,0.528,1.052,0.739,0.338,0.591,0.556,���k��,4.1,��
2022/10/30,18:10,0.581,0.836,0.528,1.050,0.740,0.338,0.593,0.557,�k��,4.3,��
2022/10/30,18:20,0.582,0.834,0.526,1.052,0.737,0.335,0.594,0.558,�k��,5.0,��
2022/10/30,18:30,0.581,0.834,0.527,1.054,0.741,0.340,0.592,0.556,�k��,5.3,��
2022/10/30,18:40,0.580,0.835,0.526,1.053,0.738,0.338,0.594,0.556,�k��,4.6,��
2022/10/30,18:50,0.580,0.835,0.526,1.054,0.738,0.336,0.593,0.558,���k��,4.4,��
2022/10/30,19:00,0.581,0.833,0.528,1.052,0.740,0.337,0.592,0.558,���k��,4.4,��
2022/10/30,19:10,0.582,0.833,0.528,1.053,0.741,0.337,0.592,0.557,�k��,5.5,��
2022/10/30,19:20,0.580,0.833,0.526,1.052,0.738,0.337,0.591,0.558,�k��,5.1,��
2022/10/30,19:30,0.581,0.833,0.527,1.053,0.738,0.337,0.592,0.558,�k��,4.1,��
2022/10/30,19:40,0.579,0.834,0.526,1.054,0.738,0.337,0.592,0.557,�k��,5.0,��
2022/10/30,19:50,0.580,0.834,0.526,1.055,0.737,0.338,0.593,0.558,�k��,4.7,��
2022/10/30,20:00,0.579,0.834,0.528,1.054,0.738,0.336,0.593,0.559,�k��,5.0,��
2022/10/30,20:10,0.581,0.836,0.526,1.052,0.740,0.337,0.593,0.558,���k��,5.9,��
2022/10/30,20:20,0.581,0.832,0.528,1.052,0.737,0.337,0.591,0.556,���k��,6.4,��
2022/10/30,20:30,0.580,0.833,0.528,1.053,0.738,0.338,0.593,0.558,���k��,6.8,��
2022/10/30,20:40,0.580,0.833,0.527,1.053,0.740,0.338,0.593,0.558,�k��,6.8,��
2022/10/30,20:50,0.581,0.834,0.526,1.053,0.736,0.337,0.591,0.557,���k��,7.4,��
2022/10/30,21:00,0.579,0.833,0.525,1.052,0.739,0.338,0.593,0.557,�k��,6.6,��
2022/10/30,21:10,0.580,0.832,0.526,1.053,0.738,0.336,0.591,0.557,���k��,7.7,��
2022/10/30,21:20,0.580,0.835,0.527,1.052,0.737,0.336,0.592,0.558,���k��,7.4,��
2022/10/30,21:30,0.580,0.832,0.525,1.052,0.739,0.337,0.593,0.557,�k��,7.9,��
2022/10/30,21:40,0.581,0.836,0.526,1.052,0.739,0.336,0.591,0.557,�k��,8.0,��
2022/10/30,21:50,0.580,0.833,0.526,1.054,0.738,0.337,0.593,0.556,���k��,8.3,��
2022/10/30,22:00,0.582,0.834,0.527,1.052,0.737,0.336,0.594,0.558,���k��,8.3,��
2022/10/30,22:10,0.580,0.833,0.525,1.050,0.738,0.337,0.592,0.557,�k��,7.0,��
2022/10/30,22:20,0.581,0.835,0.528,1.052,0.738,0.337,0.592,0.557,�k��,4.6,��
2022/10/30,22:30,0.582,0.832,0.527,1.052,0.737,0.336,0.592,0.557,���k��,6.9,��
2022/10/30,22:40,0.581,0.833,0.526,1.052,0.738,0.337,0.593,0.556,���k��,5.7,��
2022/10/30,22:50,0.580,0.832,0.526,1.053,0.737,0.337,0.594,0.557,���k��,6.1,��
2022/10/30,23:00,0.580,0.832,0.525,1.051,0.739,0.337,0.593,0.558,���k��,5.7,��
2022/10/30,23:10,0.581,0.832,0.526,1.053,0.736,0.336,0.593,0.558,�k��,5.5,��
2022/10/30,23:20,0.579,0.834,0.527,1.052,0.737,0.336,0.593,0.557,���k��,6.3,��
2022/10/30,23:30,0.580,0.835,0.526,1.054,0.738,0.336,0.593,0.559,���k��,5.8,��
2022/10/30,23:40,0.579,0.835,0.526,1.053,0.738,0.337,0.592,0.556,���k��,6.4,��
2022/10/30,23:50,0.579,0.834,0.525,1.053,0.737,0.337,0.592,0.557,���k��,7.7,��
